Vorticity
-2 -1 4 5 7 -0 -0 1 4 4 3 6 8 7 11 10 9 9 7 8 8 9 10 10 9 8 8 7 8 8 8 7 6 6 6 5 4 5 5 4 4 8 5 2 1
3 3 2 4 4 2 1 3 5 5 4 5 8 7 11 12 6 7 7 5 5 8 8 7 4 6 6 7 6 6 6 9 8 9 8 8 6 3 3 1 4 5 6 4 5
7 8 6 4 5 5 4 4 4 2 6 9 8 10 9 8 6 8 5 7 8 5 7 8 11 16 18 18 18 16 16 15 16 15 14 8 9 6 6 6 6 6 3 2 2
7 6 6 5 5 4 6 6 1 5 6 8 7 9 6 3 7 6 8 8 12 15 17 19 14 8 1 2 3 6 3 3 5 7 6 7 11 17 11 6 5 7 6 8 5
6 3 3 6 7 8 3 5 5 4 8 9 6 5 4 7 7 12 13 13 11 10 8 5 1 2 4 3 1 4 6 7 9 13 8 8 8 5 7 14 10 10 10 9 9
7 4 4 1 6 6 6 11 4 3 8 6 5 9 4 13 10 12 11 10 8 3 3 4 2 3 8 2 11 11 10 15 17 21 18 15 10 14 11 9 10 6 9 13 11
4 5 5 4 -1 6 8 4 3 4 8 5 9 7 11 9 10 8 9 4 2 1 4 10 3 5 5 8 5 14 17 15 12 11 14 17 19 11 12 12 12 13 11 8 12
4 6 4 7 7 1 14 4 4 7 8 6 9 9 11 11 11 10 8 5 7 6 8 5 3 7 6 11 20 11 11 10 12 12 12 13 7 10 13 16 13 12 13 13 9
2 8 6 7 3 1 11 9 5 7 5 10 9 13 12 7 5 7 2 3 4 5 7 6 6 5 15 14 9 14 14 15 18 21 19 22 19 22 23 22 18 18 16 10 7
-4 6 11 8 2 5 9 7 6 7 8 10 13 7 8 8 7 6 5 7 11 9 6 6 4 13 10 12 14 16 18 13 25 22 26 28 38 27 18 28 35 43 45 38 27
1 -2 16 6 4 3 10 8 8 9 10 15 5 11 9 4 7 2 5 8 9 6 10 5 5 9 15 13 19 16 20 31 28 14 15 11 4 8 9 8 11 3 10 17 32
2 -2 13 10 7 1 11 9 6 6 12 15 7 3 3 4 8 7 10 8 10 5 5 7 8 17 13 10 22 28 26 22 19 9 9 7 9 10 9 11 13 16 5 -4 -3
4 -0 13 12 5 15 13 6 7 7 20 -1 7 4 5 8 7 5 9 9 5 5 5 10 14 12 11 18 31 35 16 16 13 12 8 8 18 19 9 6 26 22 15 19 17
-0 6 7 5 15 11 6 6 5 14 16 20 -2 0 5 7 7 5 9 8 5 4 8 11 14 11 15 21 37 18 20 5 11 12 14 17 12 20 13 -3 19 14 28 22 11
1 10 7 17 12 8 7 5 11 18 5 6 5 4 8 10 5 6 5 6 5 3 13 12 13 12 15 23 25 16 13 15 7 4 15 5 19 12 13 31 30 32 40 23 24
14 8 14 13 9 6 5 9 18 13 13 7 4 6 9 7 7 7 6 6 5 6 12 13 11 13 25 18 11 8 4 8 18 24 7 2 8 13 21 9 12 17 -12 43 32
9 12 10 7 9 9 9 14 17 8 7 2 6 7 10 8 8 6 5 4 4 4 12 14 11 10 22 27 9 14 14 10 11 8 -2 -5 8 3 5 17 16 7 -3 32 33
11 13 7 11 12 9 10 15 11 6 4 8 5 12 8 7 9 5 4 3 3 8 14 12 13 18 13 23 12 14 13 2 8 12 45 -19 21 8 10 -4 -0 25 3 53 17
14 8 6 9 11 15 14 11 7 6 4 6 7 12 9 7 9 6 5 5 3 6 15 11 12 13 17 17 12 14 9 11 4 19 2 9 16 -17 6 12 6 3 18 20 47
5 5 4 7 10 11 13 12 6 5 5 6 12 13 9 9 8 7 5 4 4 4 10 10 11 21 11 21 12 7 10 9 8 9 10 5 5 15 8 9 5 12 10 -3 29
4 6 6 4 3 2 10 16 8 1 -2 6 12 11 8 8 8 6 4 -0 3 4 5 14 12 6 14 16 19 12 6 17 8 5 12 4 5 4 11 9 9 6 2 6 9
6 5 6 3 10 8 10 8 13 10 9 7 8 10 8 9 8 8 6 4 3 2 2 13 8 15 13 19 16 10 7 10 14 7 3 18 1 8 11 10 5 10 10 7 3
17 4 6 6 7 11 8 4 9 8 10 12 12 9 10 9 9 8 7 5 3 4 2 11 9 9 18 14 21 10 9 6 17 6 6 6 13 10 12 9 12 8 10 13 -1
4 11 -0 11 14 13 9 5 10 10 15 8 10 9 9 9 10 8 6 6 2 4 1 16 9 7 14 12 16 23 8 3 13 13 7 6 5 8 6 9 13 8 14 6 -2
7 5 15 16 21 13 9 8 6 11 11 12 9 9 9 8 8 9 7 5 4 5 4 15 10 10 10 19 14 5 16 7 7 14 9 10 8 7 4 7 10 12 12 16 4
12 14 11 13 26 12 4 3 8 13 9 8 12 10 7 8 10 9 8 6 5 2 9 9 9 7 10 12 16 11 30 8 2 14 8 8 9 9 4 6 0 1 9 15 26
21 14 19 17 13 17 2 5 10 11 7 14 13 10 8 9 9 9 7 6 7 4 7 6 10 8 7 15 18 11 16 20 6 5 13 7 7 12 9 8 3 4 4 2 6
Height
5833 5831 5828 5826 5823 5820 5817 5814 5811 5807 5804 5800 5796 5791 5788 5785 5780 5778 5775 5772 5769 5766 5764 5762 5760 5759 5756 5754 5752 5751 5750 5749 5747 5747 5746 5747 5749 5749 5750 5754 5754 5753 5754 5757 5760
5832 5830 5828 5825 5822 5819 5815 5811 5808 5804 5800 5795 5791 5787 5783 5780 5777 5774 5771 5768 5765 5762 5759 5757 5753 5751 5749 5747 5746 5743 5741 5737 5737 5737 5737 5735 5736 5737 5738 5740 5741 5739 5741 5745 5749
5831 5828 5826 5823 5820 5817 5813 5808 5804 5800 5796 5791 5787 5783 5779 5776 5773 5770 5766 5762 5759 5756 5753 5751 5748 5745 5742 5739 5736 5733 5731 5727 5724 5724 5724 5724 5721 5721 5723 5725 5725 5727 5728 5731 5734
5829 5827 5824 5820 5817 5813 5809 5805 5800 5796 5792 5788 5783 5780 5776 5772 5769 5764 5760 5757 5753 5750 5747 5743 5740 5737 5734 5731 5729 5725 5720 5717 5714 5710 5709 5708 5709 5707 5706 5709 5708 5708 5713 5718 5720
5827 5824 5821 5817 5813 5809 5805 5801 5797 5792 5788 5784 5780 5776 5772 5767 5763 5758 5754 5751 5748 5744 5740 5737 5733 5730 5725 5721 5717 5712 5708 5703 5698 5695 5693 5692 5691 5690 5695 5687 5686 5691 5696 5701 5704
5823 5820 5818 5814 5810 5805 5801 5797 5793 5789 5784 5779 5775 5771 5767 5763 5757 5753 5749 5746 5742 5739 5736 5732 5726 5722 5717 5710 5704 5697 5691 5685 5680 5676 5674 5673 5676 5673 5674 5665 5671 5673 5678 5683 5687
5819 5815 5812 5809 5805 5801 5796 5792 5788 5783 5779 5774 5770 5765 5761 5758 5752 5748 5745 5742 5738 5733 5728 5723 5717 5712 5705 5696 5688 5680 5676 5669 5663 5658 5655 5653 5663 5657 5650 5648 5651 5656 5658 5663 5668
5815 5812 5808 5804 5800 5796 5792 5787 5783 5778 5774 5769 5764 5759 5755 5751 5747 5744 5740 5736 5731 5726 5721 5715 5708 5700 5692 5683 5673 5665 5660 5655 5648 5640 5639 5638 5650 5637 5628 5630 5633 5634 5638 5644 5651
5811 5808 5804 5799 5795 5791 5786 5782 5778 5773 5768 5764 5760 5755 5751 5747 5743 5738 5734 5731 5725 5719 5712 5704 5698 5690 5680 5671 5663 5652 5645 5638 5636 5623 5623 5619 5625 5615 5611 5611 5615 5618 5622 5626 5633
5806 5802 5798 5794 5790 5786 5781 5776 5772 5768 5764 5759 5755 5752 5747 5742 5737 5732 5728 5723 5718 5712 5706 5697 5688 5678 5667 5658 5649 5640 5632 5624 5617 5614 5610 5608 5606 5604 5601 5600 5601 5604 5606 5608 5612
5802 5797 5793 5788 5784 5780 5777 5772 5768 5764 5759 5754 5750 5745 5740 5736 5732 5727 5722 5716 5710 5704 5696 5687 5677 5667 5657 5646 5635 5626 5618 5611 5608 5605 5603 5602 5601 5598 5598 5595 5595 5594 5594 5595 5597
5796 5792 5787 5782 5778 5774 5770 5766 5762 5758 5753 5748 5744 5740 5736 5731 5726 5719 5715 5711 5704 5696 5687 5677 5668 5657 5647 5636 5624 5614 5606 5605 5603 5601 5600 5597 5595 5593 5591 5587 5585 5584 5583 5583 5584
5791 5786 5781 5776 5772 5768 5764 5761 5756 5752 5748 5743 5739 5735 5731 5728 5722 5716 5710 5704 5697 5688 5680 5670 5660 5648 5638 5627 5617 5607 5602 5601 5600 5597 5597 5594 5591 5587 5583 5581 5577 5574 5570 5568 5567
5783 5779 5775 5771 5767 5761 5757 5755 5750 5745 5741 5739 5735 5730 5725 5720 5716 5709 5703 5698 5691 5683 5672 5663 5651 5641 5629 5617 5610 5605 5602 5599 5597 5594 5592 5590 5588 5582 5579 5575 5569 5561 5554 5553 5552
5775 5771 5768 5762 5758 5756 5752 5748 5744 5739 5736 5734 5729 5723 5719 5715 5708 5703 5698 5690 5684 5676 5667 5656 5646 5634 5622 5613 5607 5604 5601 5598 5595 5591 5589 5586 5583 5577 5574 5571 5566 5557 5549 5543 5539
5768 5764 5762 5757 5752 5749 5745 5742 5738 5735 5731 5728 5723 5717 5714 5709 5703 5697 5692 5686 5679 5668 5660 5652 5642 5632 5620 5610 5604 5602 5600 5598 5594 5591 5589 5586 5581 5576 5572 5568 5562 5555 5547 5538 5532
5761 5757 5754 5750 5748 5743 5739 5736 5734 5729 5727 5722 5717 5713 5708 5703 5697 5693 5688 5683 5676 5668 5659 5649 5638 5628 5619 5613 5606 5602 5600 5598 5595 5590 5588 5584 5581 5577 5572 5567 5561 5553 5544 5532 5527
5754 5751 5747 5744 5740 5736 5734 5731 5727 5724 5720 5716 5712 5708 5702 5697 5694 5688 5682 5676 5669 5661 5653 5645 5635 5626 5616 5610 5605 5600 5597 5595 5592 5589 5586 5584 5581 5578 5574 5568 5562 5553 5543 5530 5526
5749 5745 5742 5737 5734 5730 5728 5724 5721 5717 5715 5710 5706 5702 5697 5692 5687 5682 5677 5673 5665 5657 5649 5641 5632 5622 5614 5608 5606 5603 5599 5597 5594 5590 5587 5585 5582 5579 5575 5571 5565 5559 5549 5539 5532
5743 5740 5736 5732 5728 5724 5721 5718 5715 5712 5708 5703 5699 5696 5690 5686 5682 5677 5672 5668 5661 5653 5645 5638 5630 5622 5615 5608 5604 5602 5598 5596 5592 5590 5587 5585 5582 5579 5577 5573 5567 5562 5555 5547 5540
5737 5734 5730 5725 5722 5719 5715 5711 5707 5703 5700 5698 5693 5689 5685 5681 5676 5672 5667 5663 5656 5649 5642 5636 5628 5620 5614 5608 5604 5602 5599 5595 5593 5590 5587 5585 5583 5579 5576 5573 5569 5565 5560 5554 5547
5729 5726 5722 5718 5716 5711 5707 5705 5702 5697 5693 5690 5687 5683 5679 5675 5671 5666 5662 5657 5652 5646 5639 5633 5627 5619 5613 5607 5601 5599 5597 5594 5592 5590 5588 5585 5585 5581 5578 5574 5571 5568 5566 5561 5555
5721 5717 5714 5711 5707 5703 5699 5694 5692 5689 5685 5682 5680 5676 5672 5669 5666 5661 5656 5653 5647 5642 5636 5630 5626 5619 5612 5607 5602 5597 5596 5593 5590 5588 5586 5586 5585 5581 5579 5576 5573 5571 5568 5567 5564
5713 5710 5707 5702 5698 5693 5690 5687 5684 5682 5678 5675 5672 5669 5666 5663 5659 5656 5652 5648 5644 5639 5633 5627 5621 5615 5610 5603 5599 5597 5594 5592 5590 5588 5586 5585 5582 5583 5580 5579 5575 5573 5571 5571 5569
5702 5700 5696 5693 5689 5685 5680 5677 5676 5673 5671 5666 5664 5661 5659 5657 5654 5650 5646 5643 5639 5635 5629 5625 5620 5613 5607 5602 5597 5594 5592 5590 5588 5587 5585 5585 5584 5583 5583 5580 5578 5576 5574 5574 5573
5694 5691 5690 5685 5680 5676 5671 5669 5668 5665 5661 5658 5655 5653 5651 5649 5648 5644 5641 5637 5634 5630 5625 5621 5617 5612 5605 5599 5595 5592 5589 5588 5586 5585 5583 5583 5583 5582 5581 5581 5580 5578 5577 5577 5577
5683 5680 5677 5675 5671 5667 5664 5662 5661 5658 5656 5650 5647 5645 5643 5642 5641 5638 5635 5632 5629 5626 5621 5617 5614 5609 5604 5598 5593 5591 5587 5585 5584 5583 5582 5580 5580 5579 5579 5580 5579 5579 5579 5579 5580